Location: Piotrkow Trybunalski
(51.4000°N, 19.6830°E)
Time: 01:33:25
(UTC+02:00)

STRAND 1 - Pass Details

Date: 30 March 2023
Orbit: 767 x 779 km, 98.4° (Epoch: 06 June)

Event Time Altitude Azimuth Distance (km) Brightness Sun altitude
Rises 21:41:11 0° 3° (N) 3,255 ? -22.2°
Reaches altitude 10° 21:44:33 10° 340° (NNW) 2,322 ? -22.6°
Maximum altitude 21:47:08 14° 309° (NW) 2,039 ? -22.9°
Drops below altitude 10° 21:49:44 10° 278° (W) 2,313 ? -23.2°
Sets 21:53:05 0° 255° (WSW) 3,235 ? -23.6°
